Location: Elbart
(49.6135°N, 11.9134°E)
Time: 23:17:27
(UTC+00:00)

STARLINK-1203 - Pass Details

Date: 09 April 2020
Orbit: 559 x 560 km, 53.0° (Epoch: 27 May)

Event Time Altitude Azimuth Distance (km) Brightness Sun altitude
Rises 19:14:11 0° 292° (WNW) 2,749 9.2 -12.5°
Reaches altitude 10° 19:16:26 10° 292° (WNW) 1,852 7.8 -12.8°
Maximum altitude 19:20:39 87° 208° (SSW) 566 3.6 -13.4°
Enters shadow 19:23:13 23° 116° (ESE) 1,210 4.7 -13.8°
